Location: Piotrkow Trybunalski
(51.4000°N, 19.6830°E)
Time: 08:18:38
(UTC+01:00)

Transit 4A - Pass Details

Date: 29 November 2023
Orbit: 869 x 973 km, 66.8° (Epoch: 28 February)

Event Time Altitude Azimuth Distance (km) Brightness Sun altitude
Exits shadow 03:04:53 23° 27° (NNE) 1,873 9.7 -38.9°
Drops below altitude 10° 03:09:09 10° 72° (ENE) 2,625 11.0 -38.2°
Sets 03:12:11 0° 86° (E) 3,546 11.9 -37.8°
